This is the latest recevied weather packets stored in our database for station/object M0UPS-13. If no packets are shown the sender has not sent any weather packets the latest 10 day(s).
| Time | Temp. | Humidity | Pressure | Rain* | Wind** | Luminosity | Snow |
|---|---|---|---|---|---|---|---|
| 1777751702 | 15° C | 83% | 1011.6 hPa | 0 mm | - | 0 W/m² | - |
| 1777751402 | 15.56° C | 82% | 1011.7 hPa | 0 mm | - | 0 W/m² | - |
| 1777751102 | 15.56° C | 82% | 1011.7 hPa | 0 mm | - | 0 W/m² | - |
| 1777750802 | 15.56° C | 81% | 1011.7 hPa | 0 mm | - | 0 W/m² | - |
| 1777750502 | 15.56° C | 80% | 1011.8 hPa | 0 mm | - | 1 W/m² | - |
| 1777750202 | 15.56° C | 80% | 1011.7 hPa | 0 mm | - | 1 W/m² | - |
| 1777749902 | 15.56° C | 79% | 1011.7 hPa | 0 mm | - | 2 W/m² | - |
| 1777749602 | 15.56° C | 79% | 1011.5 hPa | 0 mm | - | 3 W/m² | - |
| 1777749302 | 15.56° C | 79% | 1011.7 hPa | 0 mm | - | 5 W/m² | - |
| 1777749002 | 15.56° C | 79% | 1011.8 hPa | 0 mm | - | 5 W/m² | - |
| 1777748702 | 15.56° C | 79% | 1011.7 hPa | 0 mm | - | 7 W/m² | - |
| 1777748402 | 15.56° C | 78% | 1011.7 hPa | 0 mm | - | 8 W/m² | - |
| 1777748102 | 15.56° C | 77% | 1011.8 hPa | 0 mm | - | 7 W/m² | - |
| 1777747803 | 15.56° C | 77% | 1011.7 hPa | 0 mm | - | 5 W/m² | - |
| 1777747503 | 15.56° C | 77% | 1011.8 hPa | 0 mm | - | 7 W/m² | - |
| 1777747202 | 15.56° C | 77% | 1011.7 hPa | 0 mm | - | 11 W/m² | - |
| 1777746902 | 15.56° C | 78% | 1011.9 hPa | 0 mm | - | 16 W/m² | - |
| 1777746602 | 15.56° C | 77% | 1011.9 hPa | 0 mm | - | 17 W/m² | - |
| 1777745404 | 15.56° C | 77% | 1011.9 hPa | 0 mm | - | 14 W/m² | - |
| 1777744802 | 15.56° C | 76% | 1012.1 hPa | 0 mm | - | 25 W/m² | - |
| 1777743908 | 15.56° C | 81% | 1012.3 hPa | 0 mm | - | 47 W/m² | - |
| 1777743002 | 15° C | 84% | 1012.1 hPa | 0 mm | - | 60 W/m² | - |
| 1777742702 | 15° C | 85% | 1012.3 hPa | 0 mm | - | 44 W/m² | - |
| 1777742407 | 15° C | 84% | 1012.2 hPa | 0 mm | - | 27 W/m² | - |
| 1777741802 | 15° C | 85% | 1012.4 hPa | 0 mm | - | 23 W/m² | - |
* Rain latest hour (hover to see other rain measurements)
** Current wind speed in m/s (hover to see current wind gust speed)